Tracking 19576 objects as of 17-Feb-2019
HD Live streaming from Space Station
objects crossing your sky now

GORIZONT 2

Track GORIZONT 2 now!
GORIZONT 2 is classified as:


NORAD ID: 11440
Int'l Code: 1979-062A
Perigee: 35,760.7 km
Apogee: 35,809.7 km
Inclination: 11.9 °
Period: 1,435.7 minutes
Semi major axis: 42156 km
RCS: 3.981 m2 (large)
Launch date: July 5, 1979
Source: Commonwealth of Independent States (former USSR) (CIS)
Launch site: TYURATAM MISSILE AND SPACE COMPLEX (TTMTR)
aabbcc
Your satellite tracking list
Your tracking list is empty




NASA's NSSDC Master Catalog

Two Line Element Set (TLE):
1 11440U 79062A   19047.73142019 -.00000180 +00000-0 +00000-0 0  9992
2 11440 011.8556 316.3796 0005808 323.6299 212.7167 01.00302252111170
Source of the keplerian elements: AFSPC